User: anonymous   Login
Location: Berlin
(38.3226°N, 75.2177°W)
Time: 12:37:10
(UTC+00:00)
Language:

NOSS 3-2 (C) - Orbit

View from above orbital plane
View from above orbital plane
View from above satellite
View from above satellite

Ground track
Ground track

The orbit data is extracted from the following two-line orbital elements,

1 28097U 03054C   21009.75861078 0.00000000  00000-0  00000-0 0    05
2 28097  63.4122 231.2151 0424229 359.4062   0.5938 13.40772289    01
Epoch (UTC): 09 January 2021 18:12:23
Eccentricity: 0.0424229
inclination: 63.4122°
perigee height: 789 km
apogee height: 1424 km
right ascension of ascending node: 231.2151°
argument of perigee: 359.4062°
revolutions per day: 13.40772289
mean anomaly at epoch: 0.5938°
orbit number at epoch: 0

The dashed part of the orbit path shows where the satellite is in the earth's shadow,  

DLR